Temp
-6 -6 -6 -6 -5 -5 -5 -5 -5 -5 -5 -5 -5 -5 -5 -6 -6 -5 -5 -6 -5 -4 -4 -4 -4 -5 -5 -5 -4 -5 -5 -4 -5 -6 -5 -5 -6 -6 -5 -6 -5 -5 -5 -4 -4
-6 -6 -6 -6 -6 -5 -5 -5 -5 -5 -5 -5 -5 -5 -6 -6 -6 -5 -5 -5 -4 -4 -4 -4 -5 -6 -4 -5 -5 -4 -5 -5 -6 -5 -6 -4 -6 -6 -6 -5 -4 -4 -4 -4 -4
-6 -6 -6 -6 -6 -6 -5 -5 -5 -5 -5 -5 -5 -5 -5 -5 -6 -5 -5 -5 -4 -4 -4 -5 -6 -5 -5 -5 -5 -4 -4 -4 -4 -5 -5 -4 -4 -4 -5 -5 -4 -4 -4 -4 -4
-6 -6 -6 -6 -5 -5 -5 -5 -5 -5 -5 -5 -5 -5 -5 -5 -6 -5 -5 -4 -4 -4 -4 -4 -5 -5 -5 -4 -4 -3 -4 -5 -6 -4 -5 -5 -4 -3 -4 -4 -4 -3 -4 -4 -4
-6 -6 -6 -5 -5 -5 -5 -5 -5 -5 -5 -5 -5 -5 -5 -5 -5 -5 -5 -4 -4 -4 -4 -4 -5 -5 -5 -2 -3 -4 -4 -5 -5 -5 -5 -4 -5 -4 -4 -3 -2 -3 -3 -4 -4
-6 -6 -6 -5 -4 -4 -5 -5 -5 -5 -5 -5 -5 -5 -5 -5 -5 -5 -5 -4 -5 -5 -5 -5 -5 -5 -5 -4 -4 -4 -4 -4 -5 -4 -5 -4 -5 -5 -5 -4 -4 -3 -3 -4 -4
-6 -6 -6 -5 -4 -4 -4 -4 -4 -5 -5 -4 -4 -4 -4 -5 -4 -5 -5 -4 -4 -4 -4 -4 -4 -5 -4 -5 -4 -4 -5 -5 -4 -4 -5 -6 -5 -5 -5 -5 -5 -4 -3 -4 -4
-6 -6 -6 -5 -4 -4 -4 -4 -4 -4 -4 -4 -4 -4 -4 -4 -5 -5 -4 -4 -4 -4 -4 -4 -4 -2 -4 -4 -4 -4 -4 -5 -5 -5 -5 -5 -5 -4 -4 -5 -4 -4 -4 -3 -4
-6 -6 -6 -5 -5 -4 -4 -4 -4 -4 -4 -4 -4 -4 -4 -4 -5 -4 -4 -4 -5 -4 -5 -4 -4 -5 -4 -4 -5 -4 -5 -5 -5 -4 -4 -4 -5 -5 -4 -4 -4 -4 -4 -4 -4
-6 -6 -6 -6 -5 -4 -4 -4 -4 -4 -4 -4 -4 -4 -4 -4 -5 -5 -5 -4 -5 -4 -5 -5 -4 -6 -5 -5 -6 -5 -5 -6 -6 -5 -5 -5 -5 -4 -5 -4 -4 -5 -4 -4 -4
-6 -6 -6 -6 -6 -5 -4 -4 -4 -4 -3 -3 -4 -4 -4 -4 -4 -5 -4 -4 -4 -5 -5 -4 -4 -5 -5 -5 -5 -6 -6 -5 -5 -6 -5 -5 -5 -4 -5 -4 -5 -4 -4 -4 -4
-6 -6 -6 -6 -6 -6 -5 -5 -5 -5 -4 -4 -3 -4 -5 -4 -3 -5 -4 -4 -4 -4 -5 -5 -5 -6 -5 -4 -4 -5 -5 -4 -5 -6 -5 -5 -4 -4 -4 -4 -4 -4 -4 -4 -5
-6 -7 -6 -6 -6 -6 -6 -5 -4 -4 -4 -4 -4 -4 -4 -4 -3 -4 -4 -4 -4 -4 -4 -5 -6 -5 -4 -4 -4 -4 -5 -5 -5 -6 -5 -5 -5 -5 -4 -4 -4 -4 -4 -4 -4
-6 -7 -7 -6 -6 -6 -6 -5 -4 -4 -4 -4 -4 -4 -3 -3 -4 -4 -3 -4 -4 -5 -4 -5 -5 -5 -6 -5 -5 -5 -5 -6 -5 -5 -5 -5 -5 -6 -4 -4 -4 -4 -4 -4 -4
-6 -6 -6 -6 -6 -6 -6 -5 -4 -4 -4 -4 -4 -4 -4 -4 -4 -4 -4 -4 -4 -4 -4 -4 -5 -4 -4 -6 -6 -6 -6 -6 -6 -5 -6 -5 -6 -6 -5 -4 -5 -5 -5 -5 -5
-5 -6 -6 -6 -6 -6 -6 -5 -5 -4 -5 -4 -4 -4 -4 -5 -5 -4 -4 -4 -4 -3 -3 -4 -4 -4 -5 -6 -7 -6 -5 -6 -6 -6 -5 -6 -6 -6 -6 -5 -5 -5 -5 -5 -5
-5 -5 -5 -6 -6 -6 -6 -6 -6 -5 -5 -5 -5 -4 -5 -5 -5 -4 -6 -6 -5 -5 -5 -5 -5 -5 -5 -6 -6 -6 -5 -5 -6 -6 -6 -6 -6 -6 -6 -6 -5 -6 -6 -4 -5
-5 -5 -5 -6 -6 -7 -7 -6 -6 -5 -5 -6 -5 -6 -5 -5 -5 -5 -5 -6 -5 -5 -6 -5 -5 -4 -5 -5 -6 -6 -5 -5 -6 -6 -6 -6 -6 -6 -6 -5 -6 -5 -3 -3 -4
-5 -5 -6 -6 -7 -7 -7 -7 -7 -6 -6 -7 -7 -6 -5 -5 -5 -5 -5 -5 -6 -6 -6 -6 -5 -4 -5 -6 -7 -6 -6 -5 -6 -6 -6 -6 -6 -6 -6 -6 -4 -3 -3 -3 -4
-5 -5 -6 -7 -7 -7 -7 -6 -7 -7 -6 -6 -7 -7 -6 -6 -4 -6 -5 -5 -6 -5 -6 -6 -6 -5 -5 -6 -7 -7 -6 -6 -6 -6 -6 -6 -6 -6 -6 -5 -4 -4 -4 -4 -4
-5 -6 -6 -7 -7 -7 -6 -6 -7 -7 -8 -7 -6 -6 -6 -7 -6 -6 -5 -6 -6 -5 -4 -5 -5 -6 -6 -6 -6 -7 -7 -7 -6 -6 -6 -5 -6 -6 -5 -6 -6 -4 -4 -4 -4
-5 -6 -6 -7 -7 -7 -6 -6 -6 -7 -7 -8 -7 -6 -7 -7 -6 -6 -6 -6 -7 -5 -4 -5 -4 -5 -6 -6 -7 -7 -7 -7 -7 -6 -6 -6 -5 -6 -6 -5 -4 -4 -4 -4 -5
-5 -6 -6 -7 -7 -7 -6 -6 -6 -6 -6 -7 -7 -8 -7 -7 -7 -7 -7 -7 -6 -6 -5 -6 -5 -5 -5 -6 -7 -7 -7 -7 -6 -6 -5 -5 -5 -6 -5 -5 -4 -4 -4 -5 -6
-6 -5 -6 -6 -7 -7 -7 -6 -5 -5 -6 -6 -6 -7 -6 -7 -7 -7 -7 -7 -7 -6 -5 -5 -5 -5 -5 -5 -6 -6 -7 -7 -6 -6 -6 -6 -6 -4 -5 -4 -4 -4 -5 -6 -6
-5 -5 -5 -6 -7 -7 -7 -6 -5 -5 -5 -6 -6 -6 -6 -6 -6 -5 -5 -6 -5 -5 -5 -5 -5 -5 -5 -5 -5 -6 -6 -7 -7 -7 -6 -6 -6 -4 -4 -4 -4 -5 -5 -6 -5
-5 -5 -5 -6 -5 -6 -7 -7 -6 -5 -5 -6 -4 -5 -5 -4 -5 -5 -5 -5 -5 -5 -5 -5 -5 -5 -5 -5 -5 -5 -6 -6 -6 -6 -5 -5 -4 -4 -4 -4 -4 -6 -6 -7 -6
-5 -5 -6 -5 -5 -5 -4 -5 -5 -5 -4 -4 -4 -5 -4 -4 -4 -4 -4 -5 -5 -5 -5 -5 -5 -5 -4 -5 -5 -5 -5 -5 -5 -5 -5 -4 -4 -4 -4 -5 -5 -6 -7 -6 -6
Height
5889 5889 5889 5889 5890 5892 5894 5897 5901 5905 5909 5912 5914 5916 5919 5922 5925 5927 5927 5925 5924 5928 5931 5933 5931 5932 5927 5929 5928 5926 5927 5927 5928 5927 5927 5926 5926 5925 5925 5924 5924 5922 5921 5922 5924
5889 5889 5890 5890 5891 5893 5896 5899 5903 5907 5911 5914 5916 5919 5922 5925 5927 5928 5926 5924 5926 5933 5932 5932 5931 5932 5925 5932 5931 5931 5931 5931 5931 5927 5929 5928 5929 5927 5927 5928 5927 5927 5923 5923 5925
5890 5890 5891 5891 5893 5895 5898 5901 5906 5910 5913 5917 5919 5922 5924 5926 5929 5928 5927 5927 5931 5934 5933 5933 5930 5929 5929 5936 5934 5932 5929 5928 5931 5929 5929 5930 5932 5932 5928 5926 5927 5927 5926 5926 5925
5890 5891 5892 5893 5896 5898 5901 5905 5909 5913 5917 5919 5921 5924 5926 5928 5930 5929 5929 5931 5934 5934 5935 5936 5932 5929 5933 5936 5935 5933 5930 5929 5928 5931 5931 5932 5933 5932 5934 5931 5928 5928 5928 5928 5928
5891 5892 5894 5895 5898 5900 5903 5907 5911 5915 5918 5921 5923 5925 5927 5929 5931 5931 5931 5933 5935 5936 5936 5936 5932 5933 5935 5935 5933 5931 5929 5931 5932 5933 5935 5934 5936 5934 5935 5934 5933 5928 5927 5928 5928
5891 5893 5895 5896 5899 5902 5905 5909 5914 5917 5920 5922 5924 5926 5929 5931 5931 5933 5934 5935 5935 5936 5936 5929 5913 5936 5937 5939 5935 5930 5933 5930 5931 5932 5936 5933 5934 5933 5934 5933 5932 5931 5927 5927 5931
5892 5893 5895 5897 5900 5904 5907 5911 5915 5919 5922 5924 5926 5927 5930 5932 5932 5934 5935 5936 5936 5935 5932 5935 5938 5938 5941 5935 5937 5939 5934 5933 5935 5936 5937 5936 5935 5932 5933 5932 5928 5930 5930 5928 5929
5892 5894 5896 5897 5901 5904 5908 5913 5917 5920 5923 5925 5927 5929 5931 5933 5934 5934 5935 5937 5939 5936 5936 5938 5938 5940 5940 5940 5939 5933 5934 5935 5936 5931 5935 5935 5935 5935 5932 5932 5932 5932 5933 5931 5931
5892 5894 5896 5898 5901 5905 5910 5914 5917 5920 5923 5926 5928 5929 5931 5934 5936 5936 5935 5938 5942 5940 5936 5938 5938 5937 5943 5941 5937 5936 5934 5936 5936 5936 5937 5935 5936 5936 5936 5935 5935 5935 5934 5934 5933
5892 5894 5897 5899 5902 5906 5910 5914 5918 5921 5924 5926 5929 5932 5932 5933 5937 5937 5937 5938 5942 5943 5942 5937 5935 5939 5942 5939 5938 5940 5938 5939 5941 5942 5941 5940 5942 5940 5938 5935 5934 5935 5934 5934 5933
5893 5895 5897 5899 5903 5906 5910 5915 5920 5924 5925 5927 5929 5932 5934 5936 5935 5937 5939 5942 5944 5943 5942 5941 5943 5944 5945 5943 5943 5941 5941 5940 5941 5942 5942 5941 5940 5938 5939 5935 5936 5935 5935 5933 5933
5893 5896 5898 5901 5904 5907 5911 5914 5919 5925 5929 5931 5932 5933 5934 5936 5935 5936 5938 5942 5942 5942 5940 5941 5944 5944 5946 5944 5943 5942 5942 5941 5939 5939 5941 5939 5939 5938 5939 5938 5936 5936 5937 5934 5934
5893 5896 5899 5902 5905 5907 5910 5913 5919 5922 5925 5929 5932 5934 5934 5937 5934 5937 5938 5938 5941 5942 5941 5941 5941 5943 5945 5944 5942 5940 5940 5939 5938 5937 5939 5937 5938 5939 5939 5937 5936 5936 5937 5936 5935
5893 5897 5900 5904 5908 5909 5911 5914 5919 5923 5927 5931 5932 5934 5935 5936 5935 5936 5938 5942 5944 5944 5942 5940 5940 5940 5940 5941 5942 5940 5939 5937 5939 5940 5938 5936 5936 5937 5936 5936 5935 5934 5933 5933 5932
5893 5897 5901 5905 5906 5908 5912 5914 5920 5922 5926 5931 5933 5933 5934 5936 5936 5936 5938 5942 5943 5943 5944 5942 5942 5941 5940 5940 5940 5942 5939 5938 5940 5937 5937 5934 5934 5935 5934 5935 5933 5932 5931 5931 5930
5893 5897 5901 5905 5909 5911 5913 5916 5922 5926 5928 5931 5932 5934 5934 5934 5935 5936 5937 5941 5942 5943 5941 5941 5941 5941 5940 5941 5943 5941 5941 5942 5940 5938 5936 5935 5935 5933 5932 5930 5928 5926 5923 5925 5926
5892 5897 5901 5905 5909 5911 5915 5918 5924 5926 5927 5931 5932 5932 5932 5932 5933 5934 5937 5940 5940 5940 5942 5943 5943 5942 5943 5943 5944 5942 5941 5942 5941 5937 5935 5934 5934 5935 5933 5932 5930 5928 5928 5924 5922
5892 5896 5900 5904 5907 5912 5915 5920 5922 5926 5926 5929 5931 5930 5932 5935 5935 5937 5940 5938 5940 5941 5942 5944 5944 5943 5943 5942 5943 5944 5944 5942 5939 5937 5936 5934 5934 5935 5932 5929 5927 5930 5928 5923 5920
5892 5896 5901 5904 5908 5911 5915 5918 5920 5922 5924 5930 5931 5931 5934 5936 5936 5937 5937 5939 5941 5941 5943 5943 5943 5942 5941 5941 5944 5944 5943 5942 5940 5937 5936 5936 5934 5931 5929 5928 5925 5923 5921 5919 5919
5892 5897 5901 5905 5909 5912 5916 5917 5920 5922 5924 5927 5928 5930 5932 5934 5935 5933 5937 5936 5939 5941 5942 5942 5942 5941 5939 5939 5941 5942 5941 5941 5939 5937 5935 5931 5928 5927 5925 5923 5919 5918 5918 5916 5914
5891 5896 5900 5905 5910 5912 5915 5918 5920 5921 5922 5930 5925 5929 5931 5933 5933 5934 5934 5934 5937 5938 5937 5938 5939 5941 5939 5937 5937 5938 5938 5936 5935 5934 5932 5930 5927 5924 5922 5919 5917 5915 5915 5912 5908
5891 5896 5900 5905 5910 5912 5914 5917 5920 5921 5922 5928 5928 5929 5931 5932 5934 5934 5934 5933 5935 5936 5935 5935 5934 5936 5937 5936 5935 5934 5933 5932 5929 5930 5928 5926 5926 5921 5919 5917 5914 5912 5910 5908 5905
5890 5894 5899 5903 5907 5910 5914 5917 5919 5921 5923 5926 5929 5930 5930 5931 5933 5932 5933 5932 5932 5931 5932 5934 5933 5933 5935 5934 5932 5931 5930 5928 5925 5925 5924 5923 5923 5917 5914 5912 5910 5908 5906 5904 5901
5889 5893 5898 5901 5904 5909 5914 5917 5920 5920 5921 5925 5927 5927 5927 5929 5930 5931 5932 5930 5931 5931 5931 5931 5929 5928 5930 5930 5927 5927 5925 5922 5921 5920 5918 5917 5915 5912 5911 5908 5906 5904 5903 5900 5896
5888 5892 5896 5900 5902 5906 5910 5914 5917 5918 5918 5921 5923 5923 5923 5924 5925 5925 5926 5927 5925 5925 5926 5926 5925 5923 5923 5924 5922 5921 5921 5921 5918 5916 5912 5911 5907 5905 5905 5904 5902 5900 5896 5891 5886
5889 5892 5896 5899 5902 5905 5908 5911 5914 5915 5916 5916 5917 5918 5918 5918 5920 5921 5923 5924 5924 5924 5923 5921 5921 5919 5919 5919 5917 5914 5917 5912 5911 5909 5904 5901 5900 5899 5897 5897 5895 5892 5888 5882 5877
5887 5890 5893 5897 5899 5901 5901 5906 5910 5910 5913 5913 5914 5914 5914 5915 5916 5919 5920 5920 5919 5919 5918 5916 5914 5913 5912 5911 5909 5912 5908 5905 5902 5900 5898 5894 5894 5891 5890 5889 5888 5886 5882 5877 5872
Wind_Speed
5 6 6 8 12 15 19 20 22 27 24 21 19 17 16 15 15 13 11 10 10 13 11 9 6 6 10 11 15 6 13 14 3 10 16 18 14 18 17 13 14 14 13 17 16
5 6 7 10 13 16 18 21 27 27 23 20 18 17 16 14 13 12 12 12 13 12 10 9 6 0 8 15 15 15 12 14 10 7 10 14 17 12 12 12 10 11 13 10 18
5 6 8 13 16 19 23 27 27 25 21 20 19 18 16 13 12 13 13 13 14 12 10 8 3 6 11 14 18 16 17 18 16 7 7 11 12 12 10 13 10 9 10 8 9
6 7 10 14 17 21 26 27 26 23 21 19 18 16 13 12 11 15 14 13 11 11 8 6 2 3 7 9 10 9 18 14 11 14 8 7 7 14 10 9 10 9 9 8 8
7 8 11 16 17 21 24 24 23 21 20 19 17 15 12 11 14 15 11 8 6 7 4 1 8 3 7 10 12 12 16 12 8 10 6 5 6 17 17 11 7 10 11 9 7
7 9 13 17 18 20 22 23 22 21 19 16 14 13 11 12 13 12 9 10 7 6 5 5 2 12 14 5 4 11 6 9 9 10 6 8 12 11 11 12 11 7 9 11 7
8 11 14 17 20 20 21 22 21 19 16 13 11 10 11 10 11 11 9 9 8 3 2 7 15 16 9 8 8 3 3 7 3 4 4 7 11 10 4 8 12 11 8 9 9
9 12 15 17 20 21 21 20 20 17 15 12 11 9 11 11 10 10 8 7 3 1 6 9 9 10 15 12 10 14 13 5 8 9 1 9 6 9 4 1 7 11 9 9 7
11 13 15 17 21 22 20 19 18 16 15 12 10 10 12 12 9 8 5 8 2 4 3 5 8 12 16 15 18 12 12 9 8 7 2 7 8 11 12 14 8 11 9 12 11
13 13 16 17 20 22 21 18 18 17 15 12 9 7 13 16 11 7 7 5 3 3 3 8 7 7 8 6 14 14 16 17 14 13 12 15 14 16 18 11 9 9 9 13 12
15 15 17 16 19 23 23 20 18 17 16 17 15 8 9 11 13 9 7 4 3 1 5 3 2 6 8 15 9 12 13 10 19 20 14 13 16 16 16 12 16 11 7 11 10
18 16 17 17 17 19 20 20 19 13 11 9 12 10 7 8 9 9 6 3 4 3 4 6 13 12 12 16 11 9 5 8 14 13 16 21 21 24 17 20 16 18 18 19 14
20 17 17 17 18 20 22 21 18 19 19 13 10 9 6 8 8 7 6 4 1 5 3 9 5 4 3 9 8 5 4 7 10 12 11 19 20 20 18 20 17 21 20 17 18
22 19 17 16 15 16 16 19 19 18 17 13 8 7 6 5 1 4 3 5 6 5 3 7 3 5 3 10 12 10 6 3 1 6 10 16 19 19 18 18 18 20 21 21 22
22 20 18 16 14 12 12 15 16 16 14 9 7 6 3 2 4 4 9 8 13 7 4 3 6 9 2 17 19 15 7 5 7 12 6 12 12 17 18 13 18 17 19 21 22
22 21 18 16 12 11 10 11 13 13 11 9 8 8 6 7 5 6 6 8 9 2 7 3 3 3 16 20 16 10 5 15 16 11 11 10 11 18 19 24 23 23 29 27 18
21 21 18 17 16 14 13 15 13 13 14 10 8 7 9 13 8 7 10 7 8 12 5 10 8 15 17 14 4 6 2 10 9 9 6 11 13 15 21 23 22 25 29 14 15
21 21 21 19 21 24 24 20 21 19 17 17 8 7 11 14 8 2 4 8 6 7 11 7 7 10 11 9 5 6 7 11 10 11 8 8 11 15 18 23 25 24 13 16 20
22 23 22 21 29 29 27 24 21 21 18 12 8 2 4 1 8 8 2 8 7 5 3 1 2 6 9 12 11 6 5 2 7 7 4 6 8 14 18 21 21 19 21 22 18
22 25 21 27 31 29 27 25 23 19 12 11 10 5 8 7 10 3 7 4 3 3 5 3 6 6 6 8 3 6 7 7 8 10 4 9 13 16 21 24 24 27 27 26 25
24 27 25 34 31 28 26 23 26 22 15 4 7 4 3 6 6 7 5 1 6 6 4 5 6 5 8 9 5 1 10 15 13 10 16 18 18 24 26 26 30 29 28 27 29
24 27 26 36 28 25 23 20 21 25 22 15 10 6 7 7 6 11 6 1 10 9 8 7 7 6 11 16 13 13 11 14 22 10 16 20 19 23 26 27 29 28 28 29 32
23 29 27 34 31 25 20 15 23 24 21 25 19 15 15 15 10 9 10 13 18 16 16 14 15 12 8 14 20 21 24 26 26 14 16 19 16 25 27 30 30 31 31 33 35
22 27 28 31 35 30 23 15 18 18 16 20 17 26 25 26 21 22 22 25 26 26 21 15 17 19 14 15 20 25 30 32 31 29 28 27 28 28 29 32 34 33 33 34 36
22 22 27 29 34 31 26 21 19 16 14 10 12 14 16 16 18 18 20 24 20 20 19 13 12 20 20 17 21 26 29 30 36 38 38 36 37 33 32 33 31 30 34 38 41
19 19 23 27 26 27 26 24 19 19 17 14 17 18 19 18 15 17 15 15 18 19 17 18 16 19 19 19 21 25 21 29 30 32 37 38 36 36 35 32 31 29 33 41 45
19 18 21 24 26 27 29 25 25 23 20 17 16 19 20 20 15 13 12 13 16 19 20 21 23 22 19 21 22 17 22 26 29 30 33 36 36 38 36 33 32 33 37 40 43
Wind_Direction
97 94 119 134 144 154 156 160 155 152 149 146 150 146 143 148 139 131 139 141 150 141 109 94 78 98 94 93 150 162 72 63 84 55 44 38 32 34 69 66 67 84 110 118 131
107 106 119 132 142 154 158 157 152 151 148 148 144 146 147 145 138 148 149 150 144 135 113 87 62 133 117 96 124 127 112 92 65 76 94 57 52 41 50 85 81 87 85 90 122
117 118 124 133 136 142 146 151 151 149 147 144 146 141 137 129 128 148 159 152 118 133 120 109 112 241 120 113 111 96 98 78 66 67 53 53 54 73 66 67 66 62 68 62 74
131 131 132 136 140 144 149 153 152 149 147 144 141 142 141 135 136 141 153 147 125 136 125 101 152 36 151 124 111 112 99 81 107 63 36 18 51 53 50 68 99 88 66 53 34
144 145 141 142 148 151 155 156 154 152 147 140 140 141 137 132 138 144 157 152 141 137 160 211 218 200 123 144 152 130 109 130 157 111 346 26 42 63 43 37 53 92 77 54 30
155 156 150 149 156 160 162 161 158 159 150 144 145 145 142 136 147 153 162 141 113 146 197 211 206 108 138 121 67 76 133 112 143 113 39 330 355 348 42 28 41 45 89 79 48
161 161 157 158 162 167 169 168 167 165 159 156 155 155 149 140 157 168 164 151 161 195 72 359 37 71 115 67 45 98 182 95 127 133 42 353 21 350 70 34 51 28 54 67 70
165 165 162 164 166 171 174 176 174 171 170 170 169 164 157 154 158 164 184 163 137 43 17 3 23 49 55 60 53 65 109 146 280 273 113 238 326 305 327 355 12 42 36 64 64
165 163 165 165 168 171 174 175 175 172 177 176 170 171 170 155 148 152 154 136 145 313 354 349 34 35 40 62 61 69 81 84 114 61 74 11 355 352 42 359 15 27 40 34 47
166 161 164 166 168 166 171 172 172 174 174 170 165 172 170 155 159 167 158 181 169 220 27 339 346 351 19 89 88 77 75 81 59 39 51 48 48 61 44 57 65 23 28 4 18
165 161 164 165 166 167 171 176 178 176 175 171 161 140 153 171 156 176 173 158 167 149 224 301 51 143 128 86 99 117 115 88 73 58 39 50 45 54 58 81 84 39 25 34 24
167 159 162 165 161 164 167 173 169 168 171 178 177 169 181 202 187 200 195 159 179 179 149 118 114 115 111 120 97 98 113 102 81 57 58 57 61 48 73 68 67 76 65 61 50
170 163 158 161 161 166 174 179 174 172 172 181 181 211 192 221 201 217 176 159 36 303 214 131 127 52 53 96 79 95 93 50 100 84 63 63 61 63 50 59 64 63 60 66 57
172 171 162 160 163 169 181 183 176 180 180 184 193 230 223 247 152 226 190 112 81 91 44 133 153 169 129 74 86 78 104 78 78 73 19 67 54 33 43 51 44 42 33 31 27
173 175 168 162 173 172 181 184 180 175 180 185 193 212 185 188 120 139 102 106 93 125 198 128 318 292 178 116 86 86 97 224 18 37 119 36 34 29 17 40 28 26 18 13 20
175 178 177 176 160 165 170 172 173 167 141 182 158 179 144 121 168 151 101 72 81 63 211 179 186 147 134 122 113 128 104 74 80 61 48 31 21 9 354 359 0 359 354 358 19
174 176 176 169 164 147 134 135 147 146 142 127 128 142 156 156 166 152 76 57 34 56 91 137 117 122 141 153 188 220 239 81 79 37 74 20 5 348 341 343 347 345 330 8 8
169 167 164 164 152 133 130 129 125 135 113 96 105 188 200 195 173 142 65 83 46 80 59 150 138 137 113 114 100 221 346 125 67 27 81 353 339 327 329 333 330 320 17 15 14
169 165 165 165 147 142 135 129 134 122 126 120 126 126 127 16 294 224 234 54 76 102 120 165 268 143 116 78 43 323 320 134 122 50 332 325 303 307 319 314 315 353 4 2 7
166 165 166 163 156 152 149 145 128 124 132 160 200 204 286 26 2 313 248 53 357 315 200 156 243 269 161 121 331 321 292 309 246 214 235 291 306 301 295 304 325 328 331 342 346
168 166 163 166 162 160 163 160 143 149 143 245 196 195 36 39 27 249 252 84 315 327 222 254 249 224 277 248 232 285 302 318 299 256 233 244 262 277 287 302 304 312 327 343 339
170 168 166 171 164 172 174 179 175 168 165 194 222 196 243 246 217 209 210 211 274 282 296 282 276 239 242 251 248 268 258 260 280 253 259 271 269 271 276 285 295 313 328 333 332
174 180 173 176 181 182 180 176 173 173 172 195 209 213 232 244 237 245 250 253 262 281 296 285 273 267 250 243 236 237 252 261 279 271 246 267 276 278 283 287 300 309 320 324 322
178 184 182 179 191 196 200 196 200 168 171 200 215 223 237 237 248 235 243 264 260 265 277 270 281 279 268 252 252 245 246 259 274 281 279 287 294 287 281 289 297 305 313 311 308
188 192 190 188 193 196 205 206 218 193 190 226 245 253 246 250 248 238 226 236 268 294 308 305 284 277 284 276 262 251 254 265 268 273 281 284 282 281 285 292 296 302 306 309 307
192 197 194 198 205 208 209 211 215 217 215 216 247 247 251 247 235 243 248 265 282 294 304 302 297 286 276 278 275 269 273 264 267 267 269 273 280 286 289 294 297 303 304 304 304
193 196 202 210 210 206 217 207 216 229 249 249 261 269 259 253 253 271 296 289 288 288 296 299 297 297 297 297 288 291 269 276 275 274 276 283 286 288 291 294 295 297 295 295 296